Weather History for Blakely, GA

Change the Weather History Date:

Wednesday, February 13, 2013

  Actual Average (KDHN) Record (KDHN)
Temperature  
Mean Temperature 55 °F 53 °F  
Max Temperature 64 °F 64 °F 83 °F (1962)
Min Temperature 46 °F 41 °F 20 °F (1958)
Degree Days  
Heating Degree Days 10 13  
Month to date heating degree days 180  
Since 1 July heating degree days 1396  
Growing Degree Days 5 (Base 50)    
Moisture  
Dew Point 51 °F    
Average Humidity 87    
Maximum Humidity 100    
Minimum Humidity 59    
Precipitation  
Precipitation 0.00 in 0.18 in 1.38 in (1936)
Month to date precipitation 2.03  
Year to date precipitation 6.66  
Sea Level Pressure  
Sea Level Pressure 29.88 in    
Wind  
Wind Speed 3 mph (West)    
Max Wind Speed 13 mph    
Max Gust Speed 23 mph    
Visibility 8 miles    
Events Fog , Rain , Thunderstorm    
T = Trace of Precipitation, MM = Missing Value Source: NWS Daily Summary

Daily Weather History Graph

Daily Weather History Graph

Search for Another Location

Airport:

Trip Planner

Search our weather history database for the weather conditions in past years. The results will help you decide how hot, cold, wet, or windy it might be!

Date:

Astronomy

Feb. 13, 2013 Rise Set
Actual Time 7:22 AM EST 6:25 PM EST
Civil Twilight 6:57 AM EST 6:50 PM EST
Nautical Twilight 6:29 AM EST 7:18 PM EST
Astronomical Twilight 6:00 AM EST 7:47 PM EST
Moon 9:09 AM EST (2/13) 10:07 PM EST (2/13)
Length of Visible Light 11h 52m
Length of Day
11h 02m
Waxing Crescent, 13% of the Moon is Illuminated
Feb 13
Waxing Crescent
Feb 17
First Quarter
Feb 25
Full
Mar 4
Last Quarter
Mar 11
New

Hourly Weather History & Observations

Time (EST) Temp. Windchill Dew Point Humidity Pressure Visibility Wind Dir Wind Speed Gust Speed Precip Events Conditions
12:15 AM 53.6 °F - 53.6 °F 100% 29.81 in 10.0 mi Calm Calm - N/A Rain Light Rain
12:35 AM 53.6 °F - 53.6 °F 100% 29.80 in 10.0 mi Calm Calm - N/A   Overcast
12:55 AM 53.6 °F - 53.6 °F 100% 29.80 in 10.0 mi Calm Calm - N/A Rain Light Rain
1:15 AM 53.6 °F - 53.6 °F 100% 29.79 in 10.0 mi Calm Calm - N/A   Overcast
1:35 AM 53.6 °F - 53.6 °F 100% 29.79 in 10.0 mi Calm Calm - N/A   Overcast
1:55 AM 53.6 °F - 53.6 °F 100% 29.80 in 10.0 mi Calm Calm - N/A   Overcast
2:15 AM 53.6 °F - 53.6 °F 100% 29.80 in 10.0 mi North 3.5 mph - N/A Rain Rain
2:35 AM 53.6 °F - 53.6 °F 100% 29.80 in 7.0 mi Calm Calm - N/A   Overcast
2:55 AM 53.6 °F - 53.6 °F 100% 29.78 in 7.0 mi Calm Calm - N/A   Overcast
3:15 AM 53.6 °F - 53.6 °F 100% 29.78 in 5.0 mi Calm Calm - N/A Thunderstorm Overcast
3:35 AM 53.6 °F - 53.6 °F 100% 29.78 in 5.0 mi Calm Calm - N/A Thunderstorm Overcast
3:55 AM 53.6 °F - 53.6 °F 100% 29.78 in 4.0 mi Calm Calm - N/A   Overcast
4:15 AM 53.6 °F - 53.6 °F 100% 29.77 in 3.0 mi Calm Calm - N/A   Overcast
4:35 AM 53.6 °F - 53.6 °F 100% 29.77 in 0.8 mi Calm Calm - N/A   Overcast
4:55 AM 53.6 °F - 53.6 °F 100% 29.78 in 0.5 mi Calm Calm - N/A Fog Fog
5:15 AM 53.6 °F - 53.6 °F 100% 29.78 in 0.8 mi Calm Calm - N/A   Overcast
5:35 AM 53.6 °F - 53.6 °F 100% 29.79 in 0.8 mi Calm Calm - N/A   Overcast
5:55 AM 53.6 °F - 53.6 °F 100% 29.80 in 1.0 mi Calm Calm - N/A   Overcast
6:15 AM 53.6 °F - 53.6 °F 100% 29.80 in 2.5 mi Calm Calm - N/A   Overcast
6:35 AM 53.6 °F - 53.6 °F 100% 29.81 in 2.5 mi Calm Calm - N/A   Overcast
6:55 AM 53.6 °F - 53.6 °F 100% 29.81 in 1.0 mi Calm Calm - N/A   Overcast
7:15 AM 57.2 °F - 57.2 °F 100% 29.82 in 5.0 mi West 4.6 mph - N/A   Overcast
7:35 AM 59.0 °F - 59.0 °F 100% 29.83 in 4.0 mi WNW 11.5 mph 18.4 mph N/A   Overcast
7:55 AM 59.0 °F - 59.0 °F 100% 29.86 in 5.0 mi West 10.4 mph 19.6 mph N/A   Overcast
8:15 AM 59.0 °F - 59.0 °F 100% 29.86 in 7.0 mi West 6.9 mph - N/A   Scattered Clouds
8:35 AM 57.2 °F - 55.4 °F 94% 29.86 in 10.0 mi West 8.1 mph - N/A   Clear
8:55 AM 57.2 °F - 53.6 °F 88% 29.87 in 10.0 mi Calm Calm - N/A   Clear
9:15 AM 59.0 °F - 53.6 °F 82% 29.87 in 10.0 mi West 5.8 mph - N/A   Clear
9:35 AM 60.8 °F - 53.6 °F 77% 29.87 in 10.0 mi West 6.9 mph - N/A   Clear
9:55 AM 60.8 °F - 53.6 °F 77% 29.89 in 10.0 mi West 5.8 mph - N/A   Clear
10:15 AM 62.6 °F - 51.8 °F 68% 29.89 in 10.0 mi West 6.9 mph - N/A   Scattered Clouds
10:35 AM 62.6 °F - 50.0 °F 63% 29.89 in 10.0 mi West 9.2 mph 17.3 mph N/A   Mostly Cloudy
10:55 AM 62.6 °F - 50.0 °F 63% 29.88 in 10.0 mi West 6.9 mph - N/A   Scattered Clouds
11:15 AM 62.6 °F - 50.0 °F 63% 29.88 in 10.0 mi West 5.8 mph - N/A   Scattered Clouds
11:35 AM 62.6 °F - 50.0 °F 63% 29.87 in 10.0 mi West 6.9 mph - N/A   Clear
11:55 AM 62.6 °F - 50.0 °F 63% 29.88 in 10.0 mi West 8.1 mph - N/A   Clear
12:15 PM 62.6 °F - 50.0 °F 63% 29.89 in 10.0 mi WNW 10.4 mph - N/A   Clear
12:35 PM 64.4 °F - 50.0 °F 59% 29.88 in 10.0 mi West 5.8 mph - N/A   Clear
12:55 PM 64.4 °F - 50.0 °F 59% 29.88 in 10.0 mi West 9.2 mph - N/A   Scattered Clouds
1:15 PM 62.6 °F - 48.2 °F 59% 29.88 in 10.0 mi West 10.4 mph - N/A   Mostly Cloudy
1:35 PM 62.6 °F - 50.0 °F 63% 29.87 in 10.0 mi WNW 10.4 mph - N/A   Overcast
1:55 PM 62.6 °F - 50.0 °F 63% 29.87 in 10.0 mi WNW 10.4 mph 16.1 mph N/A   Overcast
2:15 PM 62.6 °F - 48.2 °F 59% 29.88 in 10.0 mi West 10.4 mph 16.1 mph N/A   Mostly Cloudy
2:35 PM 62.6 °F - 50.0 °F 63% 29.87 in 10.0 mi West 11.5 mph - N/A   Scattered Clouds
2:55 PM 60.8 °F - 50.0 °F 68% 29.88 in 10.0 mi West 10.4 mph 17.3 mph N/A   Mostly Cloudy
3:15 PM 60.8 °F - 51.8 °F 72% 29.87 in 10.0 mi West 5.8 mph - N/A   Overcast
3:35 PM 60.8 °F - 50.0 °F 68% 29.88 in 10.0 mi WNW 8.1 mph - N/A   Overcast
3:55 PM 60.8 °F - 50.0 °F 68% 29.89 in 10.0 mi WNW 6.9 mph - N/A   Overcast
4:15 PM 59.0 °F - 50.0 °F 72% 29.89 in 10.0 mi WNW 6.9 mph - N/A   Overcast
4:55 PM 57.2 °F - 50.0 °F 77% 29.88 in 10.0 mi WNW 6.9 mph - N/A   Overcast
5:15 PM 55.4 °F - 51.8 °F 88% 29.90 in 10.0 mi WNW 6.9 mph - N/A   Drizzle
5:35 PM 53.6 °F - 51.8 °F 94% 29.94 in 10.0 mi West 12.7 mph 17.3 mph N/A   Light Drizzle
5:55 PM 51.8 °F - 48.2 °F 88% 29.95 in 10.0 mi WNW 9.2 mph 23.0 mph N/A   Light Drizzle
6:15 PM 50.0 °F - 46.4 °F 87% 29.93 in 10.0 mi NW 5.8 mph - N/A Rain Light Rain
6:35 PM 50.0 °F - 46.4 °F 87% 29.94 in 7.0 mi Calm Calm - N/A Rain Rain
6:55 PM 48.2 °F - 46.4 °F 93% 29.95 in 10.0 mi SW 3.5 mph - N/A Rain Rain
7:15 PM 48.2 °F - 46.4 °F 93% 29.95 in 10.0 mi Calm Calm - N/A   Overcast
7:35 PM 46.4 °F - 46.4 °F 100% 29.96 in 10.0 mi Calm Calm - N/A Rain Light Rain
7:55 PM 48.2 °F - 46.4 °F 93% 29.99 in 10.0 mi Calm Calm - N/A   Scattered Clouds
8:15 PM 48.2 °F - 46.4 °F 93% 29.97 in 10.0 mi Calm Calm - N/A   Clear
8:55 PM 48.2 °F - 46.4 °F 93% 29.99 in 10.0 mi Calm Calm - N/A   Scattered Clouds
9:15 PM 46.4 °F - 46.4 °F 100% 29.99 in 10.0 mi Calm Calm - N/A   Clear
9:35 PM 46.4 °F 45.2 °F 46.4 °F 100% 30.00 in 10.0 mi West 3.5 mph - N/A   Clear
9:55 PM 46.4 °F - 46.4 °F 100% 30.00 in 10.0 mi Calm Calm - N/A   Clear
10:15 PM 46.4 °F - 46.4 °F 100% 29.99 in 10.0 mi Calm Calm - N/A   Clear
10:35 PM 46.4 °F - 46.4 °F 100% 29.99 in 10.0 mi Calm Calm - N/A   Clear
10:55 PM 46.4 °F - 46.4 °F 100% 29.99 in 10.0 mi Calm Calm - N/A   Clear
11:15 PM 46.4 °F 44.3 °F 46.4 °F 100% 30.02 in 10.0 mi WSW 4.6 mph - N/A   Clear
11:35 PM 46.4 °F - 44.6 °F 93% 30.02 in 10.0 mi Calm Calm - N/A   Clear
11:55 PM 46.4 °F - 44.6 °F 93% 30.02 in 10.0 mi Calm Calm - N/A   Clear